Regional Weather Roundup
Issued by NWS

Home | Current Version | Previous Version | Graphics & Text | Print | Product List | Glossary Off
Versions: 1 2 3 4 5 6 7 8 9 10 11 12 13 14 15 16 17 18 19 20 21 22 23 24 25 26 27 28 29 30 31 32 33 34 35 36 37 38 39 40 41 42 43 44 45 46 47 48 49 50

000
ASUS43 KMKX 290700
RWRWI

WISCONSIN REGIONAL WEATHER ROUNDUP
NATIONAL WEATHER SERVICE MILWAUKEE/SULLIVAN WI
200 AM CDT THU SEP 29 2016

NOTE: "FAIR" INDICATES FEW OR NO CLOUDS BELOW 12,000 FEET WITH NO
SIGNIFICANT WEATHER AND/OR OBSTRUCTIONS TO VISIBILITY.

WIZ001-002-006>008-014>016-023>028-290800-
NORTHWEST WISCONSIN

CITY           SKY/WX    TMP DP  RH WIND       PRES   REMARKS
SUPERIOR ARPT  FOG       46  46 100 CALM      30.42R VSB 3/4
ASHLAND        MOCLDY    49  48  97 CALM      30.41R
HAYWARD        FOG       47  46  97 NE3       30.41R VSB 3/4
SIREN          FOG       43  42  97 CALM      30.40S VSB 3/4
CUMBERLAND     CLEAR     46  45  93 NE5       30.39R
RICE LAKE      CLEAR     48  46  92 CALM      30.40R
CHETEK         NOT AVBL
LADYSMITH      CLEAR     49  47  95 N6        30.39S
EAU CLAIRE     NOT AVBL
MENOMONIE      CLEAR     49  47  95 CALM      30.37R
NEW RICHMOND   CLEAR     46  46  99 N6        30.38S
OSCEOLA        PTCLDY    43  43 100 CALM      30.41S
$$

WIZ003>005-009-010-017-018-290800-
NORTH CENTRAL WISCONSIN

CITY           SKY/WX    TMP DP  RH WIND       PRES   REMARKS
MANITOWISH WTR NOT AVBL
ARBOR VITAE    CLEAR     49  48  96 CALM      30.37R
WOODRUFF       CLEAR     49  48  96 CALM      30.37R
RHINELANDER    CLEAR     47  47 100 CALM      30.36S
EAGLE RIVER    CLEAR     45  45 100 CALM      30.36S FOG
LAND O LAKES   CLOUDY    48  48  98 NE5       30.39R
PHILLIPS       CLOUDY    49  49 100 CALM      30.37R
TOMAHAWK       CLEAR     45  44  95 CALM      30.36S
MEDFORD        CLEAR     47  47 100 NE6       30.34S
MERRILL        CLEAR     48  48 100 N5        30.35S
$$

WIZ029-030-035-036-043>047-290800-
CENTRAL WISCONSIN

CITY           SKY/WX    TMP DP  RH WIND       PRES   REMARKS
WAUSAU         CLEAR     49  47  93 N8        30.32S
MOSINEE        CLEAR     48  48 100 N10       30.33S
MARSHFIELD     CLEAR     52  48  86 NE9       30.32R
STEVENS POINT  CLEAR     48  47  99 N6        30.31S
WAUPACA        CLEAR     54  51  92 N6        30.29R
WAUTOMA        CLEAR     52  50  93 N10       30.29R
WISC RAPIDS    CLEAR     51  49  92 NE10      30.32R
CAMP DOUGLAS   NOT AVBL
$$

WIZ011>013-019>022-031-037>040-048>050-290800-
NORTHEAST WISCONSIN

CITY           SKY/WX    TMP DP  RH WIND       PRES   REMARKS
ANTIGO         CLEAR     47  47  97 N8        30.33S
SHAWANO        CLEAR     54  50  86 N10       30.30R
OCONTO         NOT AVBL
STURGEON BAY   PTCLDY    58  55  90 N9        30.27R
GREEN BAY      PTCLDY    52  52 100 N12       30.27S
MANITOWOC      NOT AVBL
APPLETON       CLEAR     52  50  93 N14       30.25S
CLINTONVILLE   CLEAR     52  48  87 N8        30.29R
OSHKOSH        CLOUDY    55  51  86 N13G22    30.25R
$$

WIZ032>034-041-042-053>061-290800-
SOUTHWEST WISCONSIN

CITY           SKY/WX    TMP DP  RH WIND       PRES   REMARKS
LA CROSSE      CLEAR     56  52  86 N7        30.31S
SPARTA         CLEAR     49  49  99 N5        30.32S
VIROQUA        CLEAR     50  49  99 N8        30.30S
BOSCOBEL       CLEAR     50  48  93 NE5       30.29R
PRAIRIE DU CHI CLEAR     53  49  87 N6        30.28R
PLATTEVILLE    CLEAR     51  51 100 N8        30.24S
$$

WIZ056-057-062-063-064-067-068-290800-
SOUTH CENTRAL WISCONSIN

CITY           SKY/WX    TMP DP  RH WIND       PRES   REMARKS
REEDSBURG      NOT AVBL
BARABOO/DELLS  CLEAR     49  48  93 N6        30.27R
LONE ROCK      NOT AVBL
MINERAL POINT  CLEAR     52  50  93 N8        30.24S
MADISON        CLEAR     51  49  92 MISG      30.22S
MIDDLETON      CLEAR     53  53  98 N9        30.24R
WATERTOWN      PTCLDY    55  55 100 N12       30.20R
MONROE         CLEAR     52  50  93 N12G17    30.20S
JANESVILLE     CLEAR     55  54  94 N10       30.17S
$$

WIZ051-052-058>065-066-070>072-290800-
SOUTHEAST WISCONSIN

CITY           SKY/WX    TMP DP  RH WIND       PRES   REMARKS
MILWAUKEE      MOCLDY    60  56  86 N24G32    30.15S
WAUKESHA       CLOUDY    54  52  94 N14       30.18S
MILWAUKEE/TIMM PTCLDY    55  52  88 N15G22    30.17S
RACINE         CLOUDY    57  55  93 N17G25    30.15S
BURLINGTON     CLEAR     55  52  92 N12G18    30.15S
KENOSHA        PTCLDY    58  55  90 N13       30.13R
FOND DU LAC    CLOUDY    56  53  90 N14       30.24S
SHEBOYGAN      CLOUDY    57  53  86 N15G21    30.21R
WEST BEND      CLOUDY    55  54  94 N10G20    30.19S
JUNEAU         MOCLDY    54  52  95 N12       30.22S
$$

LSZ147-162-290800-
LAKE SUPERIOR

STATION/POSITION TIME  TEMP    WIND        PRES    WAVE
                       AIR SEA DIR/SP/G            HT/PER
                 (UTC) (F)     (DEG/KT/KT) (MB)    (FT/S)
W MID LAKE BUOY  0550   56 54   30/  8/ 10 1029.4R   1/ 6
DEVILS ISLAND    0600   53      20/  6/  7 1030.1R
SAXON HARBOR     0600   50     170/  4/  4 1028.8R
$$

LMZ867-665-643>646-290800-
LAKE MICHIGAN

STATION/POSITION TIME  TEMP    WIND        PRES    WAVE
                       AIR SEA DIR/SP/G            HT/PER
                 (UTC) (F)     (DEG/KT/KT) (MB)    (FT/S)
CHAMBERS ISLAND  0600   58     350/ 22/ 26 1024.7S
S GREEN BAY BUOY 0500   57 62   40/ 21/ 25 1024.0
N MID LAKE BUOY  0550   62 66  360/ 21/ 23 1023.8S   4/ 5
NORTHPORT PIER   0600   60     350/ 17/ 20 1025.1S
KEWAUNEE LAKESHO 0600   57     360/  8/ 14 1023.3S
SHEBOYGAN LAKESH 0600   58      10/ 24/ 27 1022.2F
PORT WASHINGTON  0640   60     360/ 11/ 17 1022.4F
ATWATER BUOY     0600   56 53   10/ 21/ 25 1020.5F
MILWAUKEE LAKESH 0610   58     360/ 22/ 26   N/A
S MID LAKE BUOY  0550   65 69   50/ 25/ 31 1017.4F   7/ 7
KENOSHA   LAKESH 0600   58     360/ 21/ 25 1019.6R
$$

TC  - TEMPERATURE IN CELSIUS
VSB - VISIBILITY IN STATUTE MILES
WCI - WIND CHILL INDEX
HX  - HEAT INDEX





USA.gov is the U.S. government's official web portal to all federal, state and local government web resources and services.